Weather History for Darlington, SC

Change the Weather History Date:

Thursday, January 3, 2013

  Actual Average (KFLO) Record (KFLO)
Temperature  
Mean Temperature 38 °F 45 °F  
Max Temperature 44 °F 55 °F 76 °F (1952)
Min Temperature 33 °F 34 °F 14 °F (2010)
Degree Days  
Heating Degree Days 26 20  
Month to date heating degree days 60  
Since 1 July heating degree days 1039  
Cooling Degree Days 0 0  
Month to date cooling degree days 0  
Year to date cooling degree days 0  
Moisture  
Dew Point 38 °F    
Average Humidity 82    
Maximum Humidity 93    
Minimum Humidity 71    
Precipitation  
Precipitation 0.00 in 0.11 in 1.35 in (1985)
Month to date precipitation 0.32  
Year to date precipitation 0.32  
Sea Level Pressure  
Sea Level Pressure 30.20 in    
Wind  
Wind Speed 4 mph (NE)    
Max Wind Speed 10 mph    
Max Gust Speed -    
Visibility 7 miles    
Events      
T = Trace of Precipitation, MM = Missing Value Source: NWS Daily Summary

Daily Weather History Graph

Daily Weather History Graph

Search for Another Location

Airport:

Trip Planner

Search our weather history database for the weather conditions in past years. The results will help you decide how hot, cold, wet, or windy it might be!

Date:

Astronomy

Jan. 03, 2013 Rise Set
Actual Time 7:26 AM EST 5:22 PM EST
Civil Twilight 6:58 AM EST 5:49 PM EST
Nautical Twilight 6:27 AM EST 6:21 PM EST
Astronomical Twilight 5:56 AM EST 6:51 PM EST
Moon 11:37 PM EST (1/3) 10:53 AM EST (1/3)
Length of Visible Light 10h 51m
Length of Day
9h 55m
Waning Gibbous, 65% of the Moon is Illuminated
Jan 3
Waning Gibbous
Jan 4
Last Quarter
Jan 11
New
Jan 18
First Quarter
Jan 26
Full

Hourly Weather History & Observations

Time (EST) Temp. Windchill Dew Point Humidity Pressure Visibility Wind Dir Wind Speed Gust Speed Precip Events Conditions
12:15 AM 44.6 °F 41.4 °F 39.2 °F 81% 30.17 in 10.0 mi East 5.8 mph - N/A   Overcast
12:35 AM 44.6 °F 40.7 °F 39.2 °F 81% 30.16 in 10.0 mi ENE 6.9 mph - N/A   Overcast
12:55 AM 44.6 °F 40.7 °F 39.2 °F 81% 30.14 in 10.0 mi East 6.9 mph - N/A   Overcast
1:15 AM 44.6 °F 40.7 °F 39.2 °F 81% 30.14 in 10.0 mi East 6.9 mph - N/A   Overcast
1:35 AM 44.6 °F 43.1 °F 39.2 °F 81% 30.14 in 10.0 mi ENE 3.5 mph - N/A   Overcast
1:55 AM 44.6 °F 40.7 °F 39.2 °F 81% 30.14 in 10.0 mi East 6.9 mph - N/A   Overcast
2:15 AM 44.6 °F 41.4 °F 39.2 °F 81% 30.15 in 10.0 mi ENE 5.8 mph - N/A   Overcast
2:35 AM 44.6 °F 41.4 °F 39.2 °F 81% 30.16 in 10.0 mi ENE 5.8 mph - N/A   Overcast
2:55 AM 44.6 °F 42.2 °F 39.2 °F 81% 30.15 in 10.0 mi NE 4.6 mph - N/A   Overcast
3:15 AM 44.6 °F 43.1 °F 39.2 °F 81% 30.16 in 10.0 mi ENE 3.5 mph - N/A   Overcast
3:35 AM 44.6 °F 43.1 °F 39.2 °F 81% 30.15 in 10.0 mi ENE 3.5 mph - N/A   Overcast
3:55 AM 44.6 °F 43.1 °F 39.2 °F 81% 30.16 in 10.0 mi NE 3.5 mph - N/A   Overcast
4:15 AM 44.6 °F 43.1 °F 39.2 °F 81% 30.15 in 10.0 mi ENE 3.5 mph - N/A   Overcast
4:35 AM 44.6 °F 42.2 °F 41.0 °F 87% 30.15 in 10.0 mi NE 4.6 mph - N/A   Overcast
4:55 AM 44.6 °F 42.2 °F 41.0 °F 87% 30.14 in 7.0 mi ENE 4.6 mph - N/A   Overcast
5:15 AM 44.6 °F 42.2 °F 41.0 °F 87% 30.16 in 8.0 mi NNE 4.6 mph - N/A   Overcast
5:35 AM 44.6 °F 42.2 °F 41.0 °F 87% 30.16 in 7.0 mi NNE 4.6 mph - N/A   Overcast
5:55 AM 44.6 °F 41.4 °F 39.2 °F 81% 30.17 in 9.0 mi NE 5.8 mph - N/A   Overcast
6:15 AM 44.6 °F 41.4 °F 39.2 °F 81% 30.18 in 7.0 mi NNE 5.8 mph - N/A   Overcast
6:35 AM 44.6 °F 40.7 °F 39.2 °F 81% 30.18 in 7.0 mi ENE 6.9 mph - N/A   Overcast
6:55 AM 42.8 °F 39.3 °F 39.2 °F 87% 30.19 in 5.0 mi NNE 5.8 mph - N/A   Overcast
7:15 AM 44.6 °F 43.1 °F 39.2 °F 81% 30.19 in 5.0 mi NE 3.5 mph - N/A   Overcast
7:35 AM 44.6 °F 43.1 °F 39.2 °F 81% 30.18 in 3.0 mi East 3.5 mph - N/A   Overcast
7:55 AM 42.8 °F 39.3 °F 39.2 °F 87% 30.18 in 4.0 mi ESE 5.8 mph - N/A   Overcast
8:15 AM 42.8 °F 37.0 °F 39.2 °F 87% 30.16 in 3.0 mi SE 10.4 mph - N/A   Overcast
8:35 AM 42.8 °F 37.5 °F 39.2 °F 87% 30.17 in 4.0 mi SE 9.2 mph - N/A   Overcast
8:55 AM 44.6 °F - 39.2 °F 81% 30.20 in 4.0 mi Calm Calm - N/A   Overcast
9:15 AM 42.8 °F 40.1 °F 39.2 °F 87% 30.20 in 5.0 mi NE 4.6 mph - N/A   Overcast
9:35 AM 42.8 °F 41.1 °F 39.2 °F 87% 30.21 in 5.0 mi NNE 3.5 mph - N/A   Overcast
9:55 AM 42.8 °F 40.1 °F 39.2 °F 87% 30.21 in 5.0 mi ENE 4.6 mph - N/A   Overcast
10:15 AM 44.6 °F 40.7 °F 39.2 °F 81% 30.21 in 5.0 mi NE 6.9 mph - N/A   Overcast
10:35 AM 44.6 °F 42.2 °F 39.2 °F 81% 30.22 in 5.0 mi NNE 4.6 mph - N/A   Overcast
10:55 AM 44.6 °F 41.4 °F 39.2 °F 81% 30.21 in 5.0 mi NE 5.8 mph - N/A   Overcast
11:15 AM 44.6 °F 40.7 °F 39.2 °F 81% 30.21 in 5.0 mi NNE 6.9 mph - N/A   Overcast
11:35 AM 44.6 °F 42.2 °F 39.2 °F 81% 30.22 in 5.0 mi NNE 4.6 mph - N/A   Overcast
11:55 AM 44.6 °F 41.4 °F 39.2 °F 81% 30.19 in 5.0 mi East 5.8 mph - N/A   Overcast
12:15 PM 42.8 °F 39.3 °F 39.2 °F 87% 30.19 in 5.0 mi ENE 5.8 mph - N/A   Overcast
12:35 PM 44.6 °F 42.2 °F 39.2 °F 81% 30.19 in 5.0 mi NE 4.6 mph - N/A   Overcast
12:55 PM 42.8 °F 39.3 °F 39.2 °F 87% 30.18 in 6.0 mi NE 5.8 mph - N/A   Overcast
1:15 PM 44.6 °F 42.2 °F 37.4 °F 76% 30.18 in 6.0 mi NE 4.6 mph - N/A   Overcast
1:35 PM 42.8 °F - 37.4 °F 81% 30.18 in 6.0 mi Calm Calm - N/A   Overcast
1:55 PM 44.6 °F 42.2 °F 37.4 °F 76% 30.16 in 6.0 mi East 4.6 mph - N/A   Overcast
2:15 PM 44.6 °F 42.2 °F 37.4 °F 76% 30.17 in 7.0 mi ENE 4.6 mph - N/A   Overcast
2:35 PM 44.6 °F 43.1 °F 37.4 °F 76% 30.18 in 7.0 mi ESE 3.5 mph - N/A   Overcast
2:55 PM 44.6 °F - 37.4 °F 76% 30.17 in 7.0 mi Calm Calm - N/A   Overcast
3:15 PM 44.6 °F - 39.2 °F 81% 30.18 in 8.0 mi Calm Calm - N/A   Overcast
3:35 PM 44.6 °F 43.1 °F 37.4 °F 76% 30.18 in 9.0 mi ESE 3.5 mph - N/A   Overcast
3:55 PM 44.6 °F - 39.2 °F 81% 30.20 in 9.0 mi Calm Calm - N/A   Overcast
4:15 PM 44.6 °F 42.2 °F 37.4 °F 76% 30.19 in 9.0 mi North 4.6 mph - N/A   Overcast
4:35 PM 44.6 °F 42.2 °F 37.4 °F 76% 30.19 in 9.0 mi North 4.6 mph - N/A   Overcast
4:55 PM 44.6 °F 42.2 °F 37.4 °F 76% 30.21 in 9.0 mi NNE 4.6 mph - N/A   Overcast
5:15 PM 44.6 °F 43.1 °F 37.4 °F 76% 30.22 in 9.0 mi North 3.5 mph - N/A   Overcast
5:35 PM 44.6 °F 42.2 °F 37.4 °F 76% 30.22 in 8.0 mi North 4.6 mph - N/A   Overcast
5:55 PM 44.6 °F 43.1 °F 39.2 °F 81% 30.22 in 10.0 mi North 3.5 mph - N/A   Overcast
6:15 PM 44.6 °F - 35.6 °F 71% 30.24 in 10.0 mi Calm Calm - N/A   Overcast
6:35 PM 44.6 °F - 39.2 °F 81% 30.24 in 10.0 mi Calm Calm - N/A   Mostly Cloudy
6:55 PM 42.8 °F - 39.2 °F 87% 30.24 in 10.0 mi Calm Calm - N/A   Mostly Cloudy
7:15 PM 42.8 °F - 39.2 °F 87% 30.25 in 9.0 mi Calm Calm - N/A   Scattered Clouds
7:35 PM 42.8 °F - 37.4 °F 81% 30.25 in 7.0 mi Calm Calm - N/A   Partly Cloudy
7:55 PM 42.8 °F - 37.4 °F 81% 30.27 in 6.0 mi Calm Calm - N/A   Clear
8:15 PM 41.0 °F - 37.4 °F 87% 30.26 in 5.0 mi Calm Calm - N/A   Clear
8:35 PM 39.2 °F - 37.4 °F 93% 30.27 in 4.0 mi Calm Calm - N/A   Clear
8:55 PM 39.2 °F - 35.6 °F 87% 30.27 in 4.0 mi Calm Calm - N/A   Clear
9:15 PM 37.4 °F - 35.6 °F 93% 30.27 in 3.0 mi Calm Calm - N/A   Clear
9:35 PM 35.6 °F - 32.0 °F 87% 30.28 in 3.0 mi Calm Calm - N/A   Clear
9:55 PM 35.6 °F - 30.2 °F 81% 30.29 in 1.0 mi Calm Calm - N/A   Clear
10:15 PM 35.6 °F - 30.2 °F 81% 30.29 in 2.5 mi Calm Calm - N/A   Clear
10:35 PM 35.6 °F - 32.0 °F 87% 30.29 in 2.5 mi Calm Calm - N/A   Clear
10:55 PM 35.6 °F - 30.2 °F 81% 30.29 in 4.0 mi Calm Calm - N/A   Clear
11:15 PM 33.8 °F - 30.2 °F 87% 30.29 in 2.5 mi Calm Calm - N/A   Clear
11:35 PM 33.8 °F - 30.2 °F 87% 30.29 in 4.0 mi Calm Calm - N/A   Clear
11:55 PM 33.8 °F - 30.2 °F 87% 30.29 in 0.2 mi Calm Calm - N/A   Unknown